Jackson, KY

6:15 PM EDT on July 25, 2017 (GMT -0400)
Carroll

Weather History for KJKL - March, 2013

Change the Weather History Date:

Tuesday, March 5, 2013

  Actual Average Record
Temperature  
Mean Temperature 39 °F 44 °F  
Max Temperature 48 °F 53 °F 80 °F (1983)
Min Temperature 30 °F 34 °F 13 °F (2015)
Degree Days  
Heating Degree Days 26 21  
Month to date heating degree days 164 110  
Since 1 July heating degree days 3390 3410  
Cooling Degree Days 0 0  
Month to date cooling degree days 0 0  
Year to date cooling degree days 0 0  
Moisture  
Dew Point 38 °F    
Average Humidity 72    
Maximum Humidity 100    
Minimum Humidity 44    
Precipitation  
Precipitation 0.73 in 0.13 in 2.72 in (1989)
Month to date precipitation 1.23 0.66  
Year to date precipitation 8.87 8.02  
Snow  
Snow 0.30 in 0.10 in 4.00 in (2012)
Month to date snowfall 4.3 0.6  
Since 1 July snowfall 13.6 20.2  
Snow Depth 0.00 in    
Sea Level Pressure  
Sea Level Pressure 29.71 in    
Wind  
Wind Speed 6 mph (SSW)    
Max Wind Speed 26 mph    
Max Gust Speed 48 mph    
Visibility 5 miles    
Events Rain , Snow    
T = Trace of Precipitation, MM = Missing Value Source: NWS Daily Summary

Daily Weather History Graph

Daily Weather History Graph

Search for Another Location

Airport or City:

Trip Planner

Search our weather history database for the weather conditions in past years. The results will help you decide how hot, cold, wet, or windy it might be!

Date:

Astronomy

Mar. 05, 2013 Rise Set
Actual Time 6:58 AM EST 6:31 PM EST
Civil Twilight 6:32 AM EST 6:57 PM EST
Nautical Twilight 6:02 AM EST 7:27 PM EST
Astronomical Twilight 5:31 AM EST 7:58 PM EST
Moon 2:04 AM EST (3/5) 12:14 PM EST (3/5)
Length of Visible Light 12h 24m
Length of Day
11h 32m
Last Quarter, 41% of the Moon is Illuminated
Mar 5
Last Quarter
Mar 11
New
Mar 19
First Quarter
Mar 27
Full
Apr 3
Last Quarter

Hourly Weather History & Observations

Time (EST) Temp. Windchill Dew Point Humidity Pressure Visibility Wind Dir Wind Speed Gust Speed Precip Events Conditions
12:53 AM 39.0 °F 36.8 °F 19.9 °F 46% 30.00 in 10.0 mi East 3.5 mph - N/A   Overcast
2:53 AM 39.0 °F 35.7 °F 21.0 °F 49% 29.96 in 10.0 mi ENE 4.6 mph - N/A   Overcast
3:53 AM 39.0 °F 35.7 °F 23.0 °F 53% 29.93 in 10.0 mi East 4.6 mph - 0.00 in   Overcast
4:53 AM 39.9 °F 35.8 °F 24.1 °F 53% 29.91 in 10.0 mi East 5.8 mph - N/A   Overcast
5:53 AM 39.9 °F 37.8 °F 25.0 °F 55% 29.92 in 10.0 mi ENE 3.5 mph - N/A   Overcast
6:53 AM 37.0 °F 33.3 °F 28.0 °F 70% 29.93 in 10.0 mi ENE 4.6 mph - 0.01 in Rain Light Rain
7:53 AM 35.6 °F 31.7 °F 30.2 °F 81% 29.89 in 10.0 mi East 4.6 mph - N/A Rain Light Rain
8:53 AM 41.0 °F 39.0 °F 36.0 °F 82% 29.91 in 10.0 mi South 3.5 mph - 0.01 in Rain Light Rain
9:53 AM 41.0 °F 38.0 °F 37.0 °F 86% 29.87 in 10.0 mi Variable 4.6 mph - 0.00 in Rain Light Rain
10:53 AM 43.0 °F 40.3 °F 41.0 °F 93% 29.84 in 7.0 mi Variable 4.6 mph - 0.01 in Rain Light Rain
11:10 AM 44.6 °F 43.1 °F 42.8 °F 93% 29.82 in 7.0 mi South 3.5 mph - 0.01 in Rain Light Rain
11:53 AM 45.0 °F 42.6 °F 43.0 °F 93% 29.79 in 6.0 mi SSE 4.6 mph - 0.03 in Rain Light Rain
12:03 PM 46.4 °F 44.3 °F 44.6 °F 93% 29.77 in 7.0 mi SSE 4.6 mph - 0.00 in Rain Light Rain
12:11 PM 46.4 °F 44.3 °F 44.6 °F 93% 29.77 in 8.0 mi Variable 4.6 mph - 0.00 in Rain Light Rain
12:19 PM 46.4 °F - 44.6 °F 93% 29.76 in 10.0 mi Calm Calm - 0.00 in   Overcast
12:27 PM 46.4 °F 44.3 °F 44.6 °F 93% 29.76 in 10.0 mi Variable 4.6 mph - 0.00 in   Overcast
12:53 PM 46.9 °F - 45.0 °F 93% 29.76 in 10.0 mi South 3.5 mph - 0.01 in Rain Light Rain
1:20 PM 46.4 °F 45.2 °F 44.6 °F 93% 29.73 in 2.0 mi Variable 3.5 mph - 0.01 in Rain Rain
1:31 PM 46.4 °F 42.4 °F 44.6 °F 93% 29.71 in 2.5 mi SSE 8.1 mph - 0.04 in Rain Rain
1:45 PM 46.4 °F 42.4 °F 44.6 °F 93% 29.71 in 4.0 mi SSE 8.1 mph - 0.07 in Rain Light Rain
1:53 PM 46.0 °F 43.9 °F 45.0 °F 96% 29.72 in 4.0 mi Variable 4.6 mph - 0.08 in Rain Rain
2:12 PM 46.4 °F 43.5 °F 44.6 °F 93% 29.69 in 3.0 mi Variable 5.8 mph - 0.03 in Rain Light Rain
2:53 PM 46.9 °F - 45.0 °F 93% 29.63 in 6.0 mi Variable 5.8 mph - 0.08 in Rain Light Rain
3:13 PM 48.2 °F - 46.4 °F 93% 29.62 in 10.0 mi Variable 3.5 mph - 0.01 in Rain Light Rain
3:16 PM 48.2 °F - 46.4 °F 93% 29.61 in 10.0 mi Variable 3.5 mph - 0.01 in Rain Light Rain
3:24 PM 48.2 °F - 46.4 °F 93% 29.62 in 10.0 mi SSE 4.6 mph - 0.01 in Rain Light Rain
3:43 PM 46.4 °F - 46.4 °F 100% 29.62 in 3.0 mi Calm Calm - 0.02 in Rain Rain
3:48 PM 46.4 °F - 46.4 °F 100% 29.62 in 1.8 mi Calm Calm - 0.04 in Rain Rain
3:53 PM 46.9 °F - 46.0 °F 97% 29.62 in 1.2 mi Calm Calm - 0.05 in Rain Rain
4:00 PM 46.4 °F 44.3 °F 46.4 °F 100% 29.60 in 1.8 mi SE 4.6 mph - 0.02 in Rain Rain
4:04 PM 46.4 °F 43.5 °F 46.4 °F 100% 29.60 in 3.0 mi Variable 5.8 mph - 0.04 in Rain Rain
4:13 PM 46.4 °F 42.9 °F 44.6 °F 93% 29.59 in 4.0 mi SE 6.9 mph - 0.05 in Rain Light Rain
4:53 PM 46.9 °F - 46.0 °F 97% 29.57 in 6.0 mi South 4.6 mph - 0.11 in Rain Light Rain
5:15 PM 46.4 °F 45.2 °F 46.4 °F 100% 29.56 in 7.0 mi SSW 3.5 mph - 0.01 in Rain Light Rain
5:53 PM 46.9 °F - 46.0 °F 97% 29.55 in 4.0 mi Calm Calm - 0.05 in Rain Light Rain
6:19 PM 46.4 °F 42.4 °F 46.4 °F 100% 29.53 in 7.0 mi South 8.1 mph - 0.02 in Rain Light Rain
6:39 PM 46.4 °F 45.2 °F 46.4 °F 100% 29.53 in 1.5 mi Variable 3.5 mph - 0.05 in Rain Light Rain
6:48 PM 46.4 °F 45.2 °F 46.4 °F 100% 29.54 in 2.0 mi Variable 3.5 mph - 0.06 in Rain Light Rain
6:53 PM 46.9 °F - 46.0 °F 97% 29.55 in 4.0 mi Variable 4.6 mph - 0.06 in Rain Light Rain
7:17 PM 46.4 °F 40.1 °F 44.6 °F 93% 29.56 in 5.0 mi WSW 15.0 mph 29.9 mph 0.05 in Rain Rain
7:26 PM 44.6 °F 36.4 °F 42.8 °F 93% 29.58 in 7.0 mi WSW 20.7 mph 42.6 mph 0.06 in Rain Light Rain
7:34 PM 42.8 °F 33.1 °F 39.2 °F 87% 29.60 in 8.0 mi WSW 25.3 mph 48.3 mph 0.06 in Rain Light Rain
7:41 PM 39.2 °F 31.2 °F 37.4 °F 93% 29.61 in 6.0 mi WSW 13.8 mph 48.3 mph 0.07 in Rain Light Rain
7:53 PM 37.9 °F 28.5 °F 35.1 °F 89% 29.65 in 4.0 mi West 17.3 mph 39.1 mph 0.09 in Rain Rain
8:01 PM 35.6 °F 26.6 °F 33.8 °F 93% 29.64 in 5.0 mi West 13.8 mph 38.0 mph 0.01 in Rain Rain
8:12 PM 35.6 °F 28.0 °F 33.8 °F 93% 29.65 in 8.0 mi WSW 10.4 mph 29.9 mph 0.02 in Rain Light Rain
8:29 PM 33.8 °F 23.2 °F 30.2 °F 87% 29.68 in 1.8 mi West 17.3 mph 33.4 mph 0.04 in Snow Light Snow
8:36 PM 32.0 °F 18.9 °F 30.2 °F 93% 29.69 in 0.8 mi WSW 24.2 mph 38.0 mph 0.05 in Snow Light Snow
8:53 PM 32.0 °F 24.8 °F 30.0 °F 92% 29.72 in 0.8 mi WSW 8.1 mph 29.9 mph 0.06 in Snow Light Snow
9:00 PM 32.0 °F 24.2 °F 30.2 °F 93% 29.70 in 1.0 mi WSW 9.2 mph 23.0 mph 0.01 in Snow Light Snow
9:07 PM 30.2 °F 21.9 °F 30.2 °F 100% 29.70 in 1.5 mi WSW 9.2 mph 23.0 mph 0.01 in Snow Light Snow
9:25 PM 30.2 °F 18.5 °F 30.2 °F 100% 29.71 in 1.8 mi WSW 17.3 mph 28.8 mph 0.01 in Snow Light Snow
9:29 PM 30.2 °F 19.8 °F 28.4 °F 93% 29.71 in 3.0 mi WSW 13.8 mph 28.8 mph 0.01 in Snow Light Snow
9:53 PM 30.9 °F 21.7 °F 28.9 °F 92% 29.74 in 4.0 mi WSW 11.5 mph 25.3 mph 0.01 in Snow Light Snow
10:22 PM 30.2 °F 18.1 °F 28.4 °F 93% 29.73 in 3.0 mi West 18.4 mph 32.2 mph 0.01 in Snow Light Snow
10:31 PM 30.2 °F 19.8 °F 26.6 °F 86% 29.73 in 2.5 mi WSW 13.8 mph 33.4 mph 0.01 in Snow Light Snow
10:53 PM 30.0 °F 21.7 °F 28.0 °F 92% 29.76 in 1.2 mi WSW 9.2 mph 23.0 mph 0.02 in Snow Light Snow
11:24 PM 30.2 °F 20.2 °F 28.4 °F 93% 29.74 in 1.8 mi WSW 12.7 mph 26.5 mph 0.01 in Snow Light Snow
11:33 PM 30.2 °F 20.2 °F 26.6 °F 86% 29.73 in 2.5 mi WSW 12.7 mph 23.0 mph 0.01 in Snow Light Snow
11:46 PM 30.2 °F 21.3 °F 26.6 °F 86% 29.74 in 1.8 mi WSW 10.4 mph 19.6 mph 0.01 in Snow Light Snow
11:53 PM 30.0 °F 20.5 °F 27.0 °F 88% 29.75 in 1.5 mi WSW 11.5 mph 21.9 mph 0.02 in Snow Light Snow
11:58 PM 30.2 °F 24.3 °F 26.6 °F 86% 29.73 in 1.5 mi Variable 5.8 mph 20.7 mph 0.00 in Snow Light Snow